STARLINK-1944 (46796 NORAD) Tracking and Keplerian Element Data
This shows tracking and keplerian element data for the satellite.
Feedback or suggestion? Click here.
Element | Value |
Catalog | 46796 |
Name | STARLINK-1944 |
Epoch Orbit | 1404 |
Epoch Day | 21.16668981 |
Epoch Year | 2021 |
RAAN | 86.9314 |
Inclination | 53.0542 |
Eccentricity | 0.0002353 |
Argument of Perigee | 19.8835 |
Mean Anonmoly | 55.2019 |
Mean Motion | 15.60995299 |
Decay Rate | -0.01038764 |
L1 | 1 46796U 20074BK 21021.16668981 -.01038764 00000-0 -13305-1 0 9990 |
L2 | 2 46796 53.0542 86.9314 0002353 19.8835 55.2019 15.60995299 14047 |
Live tracking and technical data element details for STARLINK-1944 (NORAD 46796). STARLINK-1944 can be tracked NOW for your location showing map with azimuth and elevation plus other details from your city location.
Track the satellite on the map from your city or location and see movement details for azimuth, elevation, latitude, longitude, range, height, and movement on the map or in text.
IsCatalogInMostPopularTable: catalog: 46796, numindb: 31
Update: records affected: 1
GetName: 46796 STARLINK-1944
Hit Count: updated at: Fri, 22 Jan 2021 20:08:07 GMT